Location: ??????????
(42.1626°N, 44.1160°E)
Time: 14:35:15
(UTC+00:00)

Cosmos 962 Rocket - Pass Details

Date: 03 March 2021
Orbit: 951 x 999 km, 83.0° (Epoch: 13 April)

Event Time Altitude Azimuth Distance (km) Brightness Sun altitude
Rises 16:21:50 0° 185° (S) 3,633 7.5 -16.7°
Reaches altitude 10° 16:24:18 10° 185° (S) 2,697 6.8 -17.1°
Maximum altitude 16:30:29 90° 108° (ESE) 981 4.5 -18.3°
Drops below altitude 10° 16:36:49 10° 8° (N) 2,749 6.9 -19.4°
Sets 16:39:21 0° 8° (N) 3,707 7.6 -19.9°
